DF5HRN-13 Weather Reports


time (UTC)temp
C
wind
direction
speed
KPH
gust
KPH
rain 1hr
cm
rain 24hr
cm
rain mn
cm
humidity
%
barometer
mb
20260506073005 14 158 0.0 19.3 0.00 0.00 0.00 45 1017.0
20260506071505 13 180 0.0 19.3 0.00 0.00 0.00 45 1017.0
20260506061505 12 135 0.0 19.3 0.00 0.00 0.00 46 1018.0
20260506044505 11 180 0.0 19.3 0.00 0.00 0.00 47 1018.0
20260506043005 11 158 0.0 19.3 0.00 0.00 0.00 47 1018.0
20260506041505 11 180 1.6 19.3 0.00 0.00 0.00 47 1018.0
20260506040005 11 203 0.0 19.3 0.00 0.00 0.00 47 1018.0
20260506034505 11 135 4.8 19.3 0.00 0.00 0.00 47 1018.0
20260506033005 12 158 6.4 19.3 0.00 0.00 0.00 47 1018.0
20260506031505 12 158 0.0 19.3 0.00 0.00 0.00 47 1017.0
20260506030005 12 203 0.0 19.3 0.00 0.00 0.00 47 1017.0
20260506024505 11 158 0.0 19.3 0.00 0.00 0.00 47 1018.0
20260506023005 12 203 0.0 19.3 0.00 0.00 0.00 47 1018.0
20260506021505 11 158 0.0 19.3 0.00 0.00 0.00 47 1018.0
20260506020005 12 180 0.0 19.3 0.00 0.00 0.00 46 1018.0
20260506014505 12 158 0.0 19.3 0.00 0.00 0.00 46 1018.0
20260506013005 12 158 0.0 19.3 0.00 0.00 0.00 46 1018.0
20260506011505 12 180 0.0 19.3 0.00 0.00 0.00 46 1018.0
20260506010005 12 180 0.0 19.3 0.00 0.00 0.00 46 1018.0
20260506004505 12 158 0.0 19.3 0.00 0.00 0.00 46 1018.0
20260506003005 12 203 0.0 19.3 0.00 0.00 0.00 46 1018.0
20260506001505 13 158 1.6 19.3 0.00 0.00 0.00 46 1018.0
20260506000005 13 180 0.0 19.3 0.00 0.00 0.00 45 1018.0
20260505234505 13 180 0.0 19.3 0.00 0.00 0.00 45 1018.0
20260505233005 13 158 0.0 19.3 0.00 0.00 0.00 45 1018.0
20260505231505 13 180 0.0 19.3 0.00 0.00 0.00 45 1018.0
20260505230005 14 180 0.0 19.3 0.00 0.00 0.00 44 1018.0
20260505224505 14 225 0.0 19.3 0.00 0.00 0.00 44 1018.0
20260505223005 15 203 0.0 19.3 0.00 0.00 0.00 43 1018.0
20260505221505 14 248 0.0 19.3 0.00 0.00 0.00 43 1018.0
20260505220005 15 270 1.6 19.3 0.00 0.00 0.00 43 1017.0
20260505204505 15 248 0.0 19.3 0.00 0.00 0.00 42 1017.0
20260505203005 15 225 0.0 19.3 0.00 0.00 0.00 42 1017.0
20260505201505 16 248 0.0 19.3 0.00 0.00 0.00 41 1016.0
20260505200005 15 293 0.0 19.3 0.00 0.00 0.00 41 1016.0
20260505194505 15 293 0.0 19.3 0.00 0.00 0.00 41 1016.0
20260505193005 16 293 0.0 19.3 0.00 0.00 0.00 41 1016.0
20260505191505 16 203 0.0 19.3 0.00 0.00 0.00 41 1016.0
20260505190005 16 248 0.0 19.3 0.00 0.00 0.00 41 1016.0
20260505184505 16 248 0.0 19.3 0.00 0.00 0.00 41 1016.0
20260505183005 17 248 1.6 19.3 0.00 0.00 0.00 41 1016.0
20260505181505 17 270 4.8 19.3 0.00 0.00 0.00 41 1015.0
20260505180005 18 248 6.4 19.3 0.00 0.00 0.00 41 1015.0
20260505174505 19 203 8.0 16.1 0.00 0.00 0.00 40 1014.0
20260505173006 20 248 1.6 16.1 0.00 0.00 0.00 40 1014.0
20260505171505 21 203 0.0 16.1 0.00 0.00 0.00 40 1014.0
20260505170005 21 158 0.0 16.1 0.00 0.00 0.00 40 1014.0
20260505164505 21 180 1.6 16.1 0.00 0.00 0.00 39 1014.0
20260505163005 21 180 0.0 16.1 0.00 0.00 0.00 40 1015.0
20260505161505 21 158 0.0 16.1 0.00 0.00 0.00 40 1015.0
20260505153005 22 180 0.0 16.1 0.00 0.00 0.00 38 1015.0
20260505151505 22 225 1.6 16.1 0.00 0.00 0.00 37 1015.0
20260505124505 22 180 0.0 16.1 0.00 0.00 0.00 43 1016.0
20260505123005 21 68 0.0 16.1 0.00 0.00 0.00 43 1016.0
20260505121505 22 225 0.0 16.1 0.00 0.00 0.00 43 1017.0
20260505120005 21 180 8.0 16.1 0.00 0.00 0.00 43 1017.0
20260505114505 20 180 1.6 16.1 0.00 0.00 0.00 42 1017.0
20260505113005 20 158 3.2 16.1 0.00 0.00 0.00 42 1017.0
20260505111505 20 135 6.4 16.1 0.00 0.00 0.00 42 1017.0
20260505101505 22 158 1.6 16.1 0.00 0.00 0.00 42 1018.0
20260505100005 21 158 6.4 16.1 0.00 0.00 0.00 42 1018.0
20260505094505 22 158 3.2 16.1 0.00 0.00 0.00 42 1018.0
20260505093005 22 180 4.8 16.1 0.00 0.00 0.00 41 1018.0
20260505091505 21 203 3.2 16.1 0.00 0.00 0.00 41 1018.0
20260505090005 22 135 0.0 16.1 0.00 0.00 0.00 41 1018.0
20260505084505 22 135 0.0 16.1 0.00 0.00 0.00 41 1018.0
20260505083005 22 158 0.0 16.1 0.00 0.00 0.00 41 1018.0
20260505081505 21 158 0.0 16.1 0.00 0.00 0.00 41 1018.0